Hourly Weather Zaharkino

Today, 1 October, Thursday

Time Temperature Precipitation Wind Pressure Humidity
00:00 +9°C° 0 mm 2 mps 746 mmHg 77%
01:00 +9°C° 0 mm 2 mps 747 mmHg 78%
02:00 +8°C° 0 mm 2 mps 747 mmHg 80%
03:00 +8°C° 0 mm 2 mps 747 mmHg 81%
04:00 +8°C° 0 mm 2 mps 747 mmHg 82%
05:00 +7°C° 0 mm 2 mps 747 mmHg 83%
06:00 +8°C° 0 mm 2 mps 747 mmHg 79%
07:00 +10°C° 0 mm 2 mps 747 mmHg 74%
08:00 +11°C° 0 mm 3 mps 747 mmHg 70%
09:00 +12°C° 0 mm 3 mps 747 mmHg 65%
10:00 +14°C° 0 mm 3 mps 747 mmHg 60%
11:00 +17°C° 0 mm 3 mps 747 mmHg 55%
12:00 +17°C° 0 mm 4 mps 747 mmHg 52%
13:00 +18°C° 0 mm 4 mps 747 mmHg 49%
14:00 +19°C° 0 mm 4 mps 747 mmHg 46%
15:00 +17°C° 0 mm 4 mps 747 mmHg 51%
16:00 +14°C° 0 mm 3 mps 747 mmHg 57%
17:00 +13°C° 0 mm 3 mps 747 mmHg 62%
18:00 +11°C° 0 mm 3 mps 747 mmHg 63%
19:00 +10°C° 0 mm 2 mps 747 mmHg 64%
20:00 +9°C° 0 mm 2 mps 748 mmHg 65%
21:00 +9°C° 0 mm 2 mps 748 mmHg 67%
22:00 +8°C° 0 mm 2 mps 748 mmHg 69%
23:00 +8°C° 0 mm 2 mps 748 mmHg 71%

Tomorrow, 2 October, Friday

Time Temperature Precipitation Wind Pressure Humidity
00:00 +8°C° 0 mm 2 mps 748 mmHg 72%
01:00 +8°C° 0 mm 2 mps 748 mmHg 73%
02:00 +8°C° 0 mm 2 mps 748 mmHg 75%
03:00 +8°C° 0 mm 2 mps 748 mmHg 75%
04:00 +7°C° 0 mm 2 mps 748 mmHg 75%
05:00 +7°C° 0 mm 2 mps 748 mmHg 75%
06:00 +8°C° 0 mm 2 mps 748 mmHg 72%
07:00 +9°C° 0 mm 3 mps 748 mmHg 69%
08:00 +10°C° 0 mm 3 mps 748 mmHg 66%
09:00 +11°C° 0 mm 3 mps 748 mmHg 62%
10:00 +13°C° 0 mm 3 mps 748 mmHg 59%
11:00 +14°C° 0 mm 3 mps 748 mmHg 55%
12:00 +16°C° 0 mm 3 mps 748 mmHg 54%
13:00 +17°C° 0 mm 3 mps 748 mmHg 53%
14:00 +17°C° 0 mm 3 mps 748 mmHg 52%
15:00 +16°C° 0 mm 3 mps 748 mmHg 57%
16:00 +14°C° 0 mm 3 mps 748 mmHg 63%
17:00 +13°C° 0 mm 3 mps 748 mmHg 69%
18:00 +12°C° 0 mm 3 mps 748 mmHg 72%
19:00 +12°C° 0 mm 3 mps 748 mmHg 74%
20:00 +11°C° 0 mm 3 mps 749 mmHg 77%
21:00 +12°C° 0 mm 2 mps 749 mmHg 78%
22:00 +12°C° 0 mm 2 mps 749 mmHg 80%
23:00 +12°C° 0 mm 2 mps 749 mmHg 82%

Day after tomorrow, 3 October, Saturday

Time Temperature Precipitation Wind Pressure Humidity
00:00 +10°C° 0 mm 2 mps 749 mmHg 84%
01:00 +10°C° 0 mm 2 mps 748 mmHg 86%
02:00 +9°C° 0 mm 2 mps 748 mmHg 89%
03:00 +9°C° 0 mm 2 mps 748 mmHg 90%
04:00 +9°C° 0 mm 2 mps 748 mmHg 91%
05:00 +8°C° 0 mm 3 mps 748 mmHg 92%
06:00 +9°C° 0 mm 3 mps 748 mmHg 87%
07:00 +10°C° 0 mm 3 mps 748 mmHg 83%
08:00 +11°C° 0 mm 3 mps 748 mmHg 79%
09:00 +12°C° 0 mm 3 mps 748 mmHg 74%
10:00 +13°C° 0 mm 3 mps 748 mmHg 69%
11:00 +14°C° 0 mm 3 mps 748 mmHg 64%
12:00 +15°C° 0 mm 4 mps 748 mmHg 62%
13:00 +15°C° 0 mm 4 mps 748 mmHg 60%
14:00 +17°C° 0 mm 4 mps 748 mmHg 58%
15:00 +15°C° 0 mm 4 mps 748 mmHg 60%
16:00 +14°C° 0 mm 3 mps 748 mmHg 62%
17:00 +13°C° 0 mm 3 mps 748 mmHg 65%
18:00 +13°C° 0 mm 3 mps 748 mmHg 67%
19:00 +13°C° 0 mm 3 mps 748 mmHg 69%
20:00 +13°C° 0 mm 3 mps 748 mmHg 71%
21:00 +12°C° 0 mm 3 mps 748 mmHg 72%
22:00 +11°C° 0 mm 3 mps 748 mmHg 74%
23:00 +11°C° 0 mm 3 mps 748 mmHg 75%

4 October, Sunday

Time Temperature Precipitation Wind Pressure Humidity
00:00 +11°C° 0 mm 3 mps 748 mmHg 74%
01:00 +10°C° 0 mm 3 mps 748 mmHg 73%
02:00 +10°C° 0 mm 3 mps 748 mmHg 71%
03:00 +10°C° 0 mm 3 mps 748 mmHg 73%
04:00 +9°C° 0 mm 3 mps 748 mmHg 74%
05:00 +9°C° 0 mm 3 mps 748 mmHg 76%
06:00 +9°C° 0 mm 3 mps 748 mmHg 74%
07:00 +10°C° 0 mm 4 mps 748 mmHg 71%
08:00 +11°C° 0 mm 4 mps 748 mmHg 68%
09:00 +12°C° 0 mm 4 mps 748 mmHg 64%
10:00 +13°C° 0 mm 4 mps 748 mmHg 59%
11:00 +14°C° 0 mm 4 mps 748 mmHg 54%
12:00 +15°C° 0 mm 4 mps 748 mmHg 52%
13:00 +15°C° 0 mm 4 mps 748 mmHg 50%
14:00 +17°C° 0 mm 4 mps 748 mmHg 48%
15:00 +15°C° 0 mm 4 mps 748 mmHg 52%
16:00 +14°C° 0 mm 4 mps 748 mmHg 55%
17:00 +14°C° 0 mm 3 mps 748 mmHg 58%
18:00 +13°C° 0 mm 3 mps 748 mmHg 59%
19:00 +13°C° 0 mm 3 mps 748 mmHg 60%
20:00 +13°C° 0 mm 3 mps 748 mmHg 60%
21:00 +12°C° 0.4 mm 3 mps 748 mmHg 64%
22:00 +12°C° 0.4 mm 3 mps 749 mmHg 68%
23:00 +11°C° 0.4 mm 3 mps 749 mmHg 71%

5 October, Monday

Time Temperature Precipitation Wind Pressure Humidity
00:00 +11°C° 0.6 mm 3 mps 749 mmHg 75%
01:00 +11°C° 0.6 mm 4 mps 749 mmHg 79%
02:00 +11°C° 0.6 mm 4 mps 748 mmHg 82%
03:00 +11°C° 0 mm 4 mps 748 mmHg 79%
04:00 +11°C° 0 mm 4 mps 748 mmHg 77%
05:00 +11°C° 0 mm 4 mps 748 mmHg 74%
06:00 +11°C° 0 mm 4 mps 748 mmHg 70%
07:00 +11°C° 0 mm 4 mps 748 mmHg 67%
08:00 +12°C° 0 mm 5 mps 748 mmHg 63%
09:00 +13°C° 0 mm 5 mps 748 mmHg 58%
10:00 +14°C° 0 mm 5 mps 748 mmHg 53%
11:00 +16°C° 0 mm 5 mps 748 mmHg 47%
12:00 +16°C° 0 mm 5 mps 748 mmHg 46%
13:00 +17°C° 0 mm 5 mps 748 mmHg 45%
14:00 +18°C° 0 mm 4 mps 748 mmHg 44%
15:00 +17°C° 0 mm 4 mps 747 mmHg 45%
16:00 +15°C° 0 mm 4 mps 747 mmHg 47%
17:00 +14°C° 0 mm 4 mps 747 mmHg 49%
18:00 +13°C° 0 mm 4 mps 747 mmHg 49%
19:00 +13°C° 0 mm 4 mps 747 mmHg 50%
20:00 +12°C° 0 mm 4 mps 747 mmHg 51%
21:00 +12°C° 0 mm 4 mps 747 mmHg 52%
22:00 +12°C° 0 mm 4 mps 747 mmHg 54%
23:00 +12°C° 0 mm 4 mps 747 mmHg 55%

6 October, Tuesday

Time Temperature Precipitation Wind Pressure Humidity
00:00 +11°C° 0 mm 4 mps 746 mmHg 56%
01:00 +11°C° 0 mm 4 mps 746 mmHg 56%
02:00 +11°C° 0 mm 4 mps 746 mmHg 57%
03:00 +10°C° 0 mm 4 mps 746 mmHg 57%
04:00 +10°C° 0 mm 4 mps 746 mmHg 57%
05:00 +10°C° 0 mm 4 mps 745 mmHg 57%
06:00 +10°C° 0 mm 4 mps 745 mmHg 57%
07:00 +11°C° 0 mm 4 mps 745 mmHg 56%
08:00 +11°C° 0 mm 4 mps 745 mmHg 56%
09:00 +13°C° 0 mm 4 mps 745 mmHg 53%
10:00 +14°C° 0 mm 4 mps 745 mmHg 50%
11:00 +15°C° 0 mm 5 mps 745 mmHg 47%
12:00 +16°C° 0 mm 5 mps 745 mmHg 46%
13:00 +16°C° 0 mm 5 mps 744 mmHg 45%
14:00 +17°C° 0 mm 5 mps 744 mmHg 44%
15:00 +17°C° 0 mm 4 mps 744 mmHg 48%
16:00 +15°C° 0 mm 4 mps 744 mmHg 52%
17:00 +13°C° 0 mm 3 mps 744 mmHg 56%
18:00 +13°C° 0 mm 3 mps 744 mmHg 58%
19:00 +12°C° 0 mm 3 mps 744 mmHg 61%
20:00 +12°C° 0 mm 3 mps 744 mmHg 63%
21:00 +11°C° 0 mm 3 mps 744 mmHg 65%
22:00 +11°C° 0 mm 3 mps 744 mmHg 67%
23:00 +11°C° 0 mm 3 mps 744 mmHg 69%
Show more